User: anonymous   Login
Location: Clinton NY
(43.0598°N, 75.3602°W)
Time: 00:55:44
(UTC-04:00)
Language:

Iridium 11 - Orbit

View from above orbital plane
View from above orbital plane
View from above satellite
View from above satellite

Ground track
Ground track

The orbit data is extracted from the following two-line orbital elements,

1 25578U 98074B   16273.47971098  .00000013  00000-0 -25566-5 0  9993
2 25578  86.4007   4.5944 0002322  95.2436  37.1345 14.34226377940036
Epoch (UTC): 29 September 2016 11:30:47
Eccentricity: 0.0002322
inclination: 86.4007°
perigee height: 776 km
apogee height: 779 km
right ascension of ascending node: 4.5944°
argument of perigee: 95.2436°
revolutions per day: 14.34226377
mean anomaly at epoch: 37.1345°
orbit number at epoch: 94003

The dashed part of the orbit path shows where the satellite is in the earth's shadow,  

DLR